EW1458 Weather Reports


time (UTC)temp
F
wind
direction
speed
knots
gust
knots
rain 1hr
in
rain 24hr
in
rain mn
in
humidity
%
barometer
mb
20260505041655 45 257 3.5 4.3 0.00 0.00 0.00 82 1008.8
20260505041155 45 283 2.6 3.5 0.00 0.00 0.00 81 1008.6
20260505040655 46 275 2.6 7.0 0.00 0.00 0.00 81 1008.6
20260505040154 46 257 3.5 7.0 0.00 0.00 0.00 79 1008.7
20260505035654 46 237 2.6 6.1 0.00 0.00 0.00 79 1008.8
20260505035141 46 236 3.5 6.1 0.00 0.00 0.00 79 1008.6
20260505034642 46 240 4.3 5.2 0.00 0.01 0.00 80 1008.7
20260505034144 46 244 3.5 7.0 0.00 0.01 0.00 80 1008.6
20260505033641 46 275 2.6 7.0 0.00 0.01 0.00 80 1008.5
20260505033142 46 267 4.3 7.0 0.00 0.01 0.00 79 1008.7
20260505032640 46 232 4.3 7.0 0.00 0.01 0.00 80 1008.4
20260505032139 46 247 3.5 7.0 0.00 0.01 0.00 80 1008.2
20260505031637 46 237 5.2 6.1 0.00 0.01 0.00 80 1008.2
20260505031137 46 279 4.3 7.0 0.00 0.01 0.00 80 1008.3
20260505030637 47 266 3.5 9.6 0.00 0.01 0.00 80 1008.4
20260505030138 47 243 5.2 9.6 0.00 0.02 0.00 80 1008.3
20260505025137 47 240 7.0 12.2 0.00 0.02 0.02 79 1008.0
20260505024638 47 236 7.0 12.2 0.00 0.04 0.02 78 1008.1
20260505024137 47 268 7.8 9.6 0.00 0.05 0.02 78 1007.9
20260505023638 48 252 7.0 9.6 0.00 0.06 0.02 78 1008.0
20260505023135 48 248 7.8 9.6 0.00 0.07 0.02 77 1008.0
20260505022130 48 256 3.5 13.9 0.00 0.09 0.02 77 1007.9
20260505021630 48 256 6.1 13.9 0.00 0.09 0.02 77 1007.9
20260505021131 48 249 7.0 13.0 0.00 0.11 0.02 77 1007.9
20260505020129 48 265 3.5 11.3 0.00 0.13 0.02 77 1007.7
20260505015628 48 249 4.3 12.2 0.00 0.13 0.02 77 1007.7
20260505015126 48 239 6.1 13.0 0.00 0.16 0.02 77 1007.9
20260505014625 48 228 7.8 13.0 0.00 0.17 0.02 77 1007.9
20260505014123 48 265 7.0 13.9 0.00 0.18 0.02 77 1007.6
20260505013623 48 205 11.3 13.9 0.00 0.19 0.02 78 1007.6
20260505013124 48 231 10.4 13.0 0.00 0.20 0.02 78 1007.5
20260505012623 48 232 7.8 13.0 0.00 0.23 0.02 78 1007.5
20260505012122 48 229 8.7 12.2 0.00 0.25 0.02 78 1007.5
20260505011619 48 239 7.0 14.8 0.00 0.26 0.02 77 1007.4
20260505011117 48 240 7.0 14.8 0.00 0.27 0.02 77 1007.1
20260505010615 48 260 4.3 13.0 0.00 0.29 0.02 77 1007.1
20260505010127 48 258 2.6 13.0 0.00 0.30 0.02 77 1007.1
20260505005613 48 248 7.0 13.0 0.00 0.31 0.02 76 1007.1
20260505005109 48 249 9.6 13.9 0.00 0.33 0.02 76 1007.2
20260505004609 49 255 5.2 13.9 0.00 0.34 0.02 76 1007.0
20260505003107 49 236 5.2 12.2 0.00 0.40 0.02 76 1006.4
20260505002606 49 246 6.1 13.0 0.00 0.41 0.02 75 1006.5
20260505002106 49 234 5.2 13.0 0.00 0.43 0.02 75 1006.6
20260505001607 49 268 5.2 13.0 0.00 0.44 0.02 75 1006.4
20260505001104 49 231 7.0 12.2 0.00 0.45 0.02 74 1006.1
20260505000603 49 235 4.3 12.2 0.00 0.47 0.02 74 1006.1
20260504235600 49 272 5.2 11.3 0.00 0.51 0.02 73 1005.9
20260504235100 49 280 7.8 11.3 0.00 0.51 0.02 73 1005.8
20260504234600 49 255 6.1 12.2 0.00 0.54 0.02 72 1005.7
20260504234057 50 259 7.8 12.2 0.00 0.55 0.02 72 1005.6
20260504233553 50 293 5.2 13.0 0.00 0.58 0.02 72 1005.5
20260504233053 50 247 7.0 13.0 0.00 0.59 0.02 71 1005.2
20260504232554 50 268 7.0 12.2 0.00 0.61 0.02 71 1005.4
20260504232053 50 243 9.6 12.2 0.00 0.62 0.02 70 1005.3
20260504231551 50 235 8.7 10.4 0.00 0.65 0.02 70 1005.1
20260504231052 50 236 6.1 11.3 0.00 0.66 0.02 70 1005.2
20260504230604 50 249 7.8 11.3 0.00 0.66 0.02 70 1005.1
20260504230058 50 249 7.8 11.3 0.00 0.67 0.02 69 1005.0
20260504225550 50 262 5.2 13.9 0.00 0.69 0.02 69 1004.8
20260504225050 50 232 5.2 13.9 0.00 0.71 0.02 69 1004.8
20260504224547 50 248 3.5 13.0 0.00 0.72 0.02 69 1004.6
20260504224048 50 250 7.0 9.6 0.00 0.74 0.02 70 1004.9
20260504223547 50 226 4.3 9.6 0.00 0.76 0.02 70 1004.5
20260504223046 50 238 7.0 9.6 0.00 0.78 0.02 69 1004.6
20260504222547 50 248 2.6 12.2 0.00 0.80 0.02 70 1004.4
20260504222045 50 236 7.8 12.2 0.00 0.83 0.02 69 1004.5
20260504221539 50 256 3.5 9.6 0.00 0.84 0.02 69 1004.4
20260504221051 50 237 3.5 13.9 0.00 0.85 0.02 68 1004.5
20260504220538 50 262 6.1 13.9 0.00 0.86 0.02 68 1004.4
20260504220037 50 244 7.0 10.4 0.00 0.86 0.02 68 1004.8
20260504215537 50 264 5.2 13.0 0.00 0.89 0.02 69 1004.6
20260504215038 50 250 7.8 13.0 0.00 0.90 0.02 69 1004.7
20260504214538 50 253 7.8 13.0 0.00 0.91 0.02 69 1004.8
20260504214037 50 239 5.2 13.0 0.00 0.93 0.02 68 1004.8
20260504213036 50 236 9.6 13.0 0.00 0.96 0.02 69 1004.7
20260504212550 50 286 4.3 13.0 0.00 0.98 0.02 69 1004.8
20260504212041 50 229 8.7 12.2 0.00 1.00 0.02 68 1004.7
20260504211532 50 226 8.7 16.5 0.00 1.01 0.02 68 1004.8
20260504211032 50 227 8.7 16.5 0.00 1.01 0.02 69 1004.8
20260504210532 50 221 7.8 14.8 0.00 1.02 0.02 68 1004.9
20260504205530 50 255 5.2 16.5 0.00 1.03 0.02 66 1004.7
20260504205030 50 249 6.1 16.5 0.00 1.04 0.02 68 1004.6
20260504204532 50 244 5.2 20.0 0.00 1.04 0.02 67 1004.6
20260504204030 50 230 8.7 20.0 0.00 1.05 0.02 66 1004.6
20260504203529 50 264 5.2 22.6 0.00 1.05 0.02 65 1004.7
20260504203029 50 240 6.1 22.6 0.00 1.05 0.02 65 1004.5
20260504202527 50 251 7.8 21.7 0.00 1.07 0.02 66 1004.5
20260504202025 50 248 10.4 21.7 0.00 1.08 0.02 67 1004.6
20260504201525 51 229 7.8 20.0 0.00 1.08 0.02 68 1004.6
20260504201025 51 226 7.0 24.3 0.00 1.09 0.02 67 1004.7
20260504200020 52 243 4.3 23.5 0.00 1.11 0.02 64 1004.2
20260504195518 53 228 7.0 20.9 0.00 1.11 0.02 63 1004.2
20260504195018 54 264 7.0 21.7 0.00 1.11 0.02 62 1004.4
20260504194517 54 260 12.2 21.7 0.00 1.13 0.02 61 1004.0
20260504194014 54 230 10.4 21.7 0.00 1.13 0.02 61 1003.7
20260504193513 54 255 11.3 25.2 0.00 1.15 0.02 60 1003.9
20260504193014 55 237 9.6 25.2 0.00 1.16 0.02 59 1003.8
20260504192513 55 255 11.3 31.3 0.00 1.16 0.02 58 1003.8
20260504192011 56 131 8.7 31.3 0.00 1.19 0.02 57 1003.6
20260504191510 56 229 15.6 24.3 0.00 1.20 0.02 53 1003.6
20260504191010 56 221 17.4 24.3 0.00 1.21 0.02 53 1003.8
20260504190512 56 255 12.2 24.3 0.00 1.24 0.02 53 1003.5
20260504190011 56 234 13.0 21.7 0.00 1.25 0.02 52 1003.5
20260504185510 56 247 10.4 24.3 0.00 1.26 0.02 52 1003.5
20260504185011 55 256 13.9 24.3 0.00 1.26 0.02 53 1003.3
20260504184511 56 242 19.1 21.7 0.00 1.27 0.02 50 1003.5
20260504184010 56 248 8.7 24.3 0.00 1.29 0.02 52 1003.5
20260504183508 55 240 13.0 24.3 0.00 1.29 0.02 51 1003.4
20260504183006 55 232 14.8 24.3 0.00 1.31 0.02 50 1003.8
20260504182505 55 251 13.0 21.7 0.00 1.32 0.02 49 1003.8
20260504182002 56 244 10.4 25.2 0.00 1.32 0.02 49 1003.7
20260504181500 56 235 16.5 25.2 0.00 1.33 0.02 47 1003.6
20260504181001 56 231 15.6 28.7 0.00 1.34 0.02 46 1003.8
20260504180459 56 256 11.3 28.7 0.00 1.36 0.02 45 1004.1
20260504175958 56 228 6.1 26.1 0.00 1.36 0.02 44 1003.7
20260504175458 57 237 9.6 22.6 0.00 1.36 0.02 39 1003.7
20260504174955 57 256 13.0 22.6 0.00 1.37 0.02 38 1003.7
20260504174453 57 194 9.6 22.6 0.00 1.38 0.02 42 1003.4
20260504173953 57 238 13.9 23.5 0.00 1.39 0.02 39 1003.7
20260504173453 58 242 7.8 23.5 0.00 1.40 0.02 42 1003.8
20260504172952 57 222 7.0 20.9 0.00 1.42 0.02 42 1003.7
20260504172451 57 219 5.2 20.9 0.00 1.43 0.02 39 1003.7
20260504171951 58 247 13.0 18.2 0.00 1.44 0.02 39 1003.8
20260504170949 57 252 9.6 21.7 0.00 1.47 0.02 40 1003.7
20260504170448 57 216 15.6 21.7 0.00 1.49 0.02 39 1003.7
20260504160432 56 240 11.3 17.4 0.00 1.87 0.02 41 1004.3
20260504150920 53 221 17.4 21.7 0.00 2.23 0.02 37 1004.6
20260504150418 52 244 9.6 21.7 0.00 2.24 0.02 40 1004.7
20260504140916 49 268 13.0 25.2 0.00 2.36 0.02 49 1004.9
20260504140415 49 266 10.4 25.2 0.00 2.38 0.02 54 1004.9
20260504130403 46 269 11.3 17.4 0.00 2.40 0.02 64 1004.6
20260504110335 41 271 12.2 15.6 0.00 2.40 0.02 79 1002.7
20260504100321 41 227 10.4 13.9 0.00 2.41 0.02 84 1001.7
20260504081805 42 270 9.6 14.8 0.00 2.41 0.02 90 999.2
20260504081306 42 290 10.4 14.8 0.00 2.41 0.02 90 999.4
20260504080804 42 260 9.6 15.6 0.00 2.41 0.02 90 999.3
20260504080304 42 276 10.4 15.6 0.00 2.41 0.02 90 999.2
20260504070258 42 291 8.7 13.9 0.00 2.41 0.02 90 998.7
20260504050253 40 274 7.0 15.6 0.00 2.41 0.02 94 997.0
20260504045752 40 265 5.2 15.6 0.00 2.41 0.02 94 997.0
20260504045253 40 230 10.4 13.0 0.00 2.41 0.02 94 997.0
20260504044804 40 293 7.0 18.2 0.01 2.41 0.02 93 996.9
20260504044249 40 295 8.7 20.0 0.01 2.41 0.02 92 996.8
20260504043749 40 279 10.4 20.0 0.01 2.41 0.02 92 996.9
20260504043250 39 285 8.7 21.7 0.01 2.41 0.02 93 996.8
20260504042749 39 299 11.3 21.7 0.01 2.41 0.02 92 996.8
20260504042249 39 257 9.6 19.1 0.01 2.41 0.02 92 996.8